User: anonymous   Login
Location: Oshawa
(43.9000°N, 78.8670°W)
Time: 13:49:59
(UTC-05:00)
Language:

Iridium 54 - Orbit

View from above orbital plane
View from above orbital plane
View from above satellite
View from above satellite

Ground track
Ground track

The orbit data is extracted from the following two-line orbital elements,

1 25171U 98010C   18020.27714267  .00000114  00000-0  33782-4 0  9994
2 25171  86.3956 259.6410 0002020  87.7647 272.3780 14.34218330 43044
Epoch (UTC): 20 January 2018 06:39:05
Eccentricity: 0.0002020
inclination: 86.3956°
perigee height: 776 km
apogee height: 779 km
right ascension of ascending node: 259.6410°
argument of perigee: 87.7647°
revolutions per day: 14.34218330
mean anomaly at epoch: 272.3780°
orbit number at epoch: 4304

The dashed part of the orbit path shows where the satellite is in the earth's shadow,  

DLR